Weather History for Palma De Mallorca / Son San Juan, Spain

Change the Weather History Date:

Sunday, January 12, 2014

  Actual Average Record
Temperature  
Mean Temperature 53 °F -  
Max Temperature 62 °F 57 °F - ()
Min Temperature 44 °F 39 °F - ()
Degree Days  
Heating Degree Days 12    
Growing Degree Days 3 (Base 50)    
Moisture  
Dew Point 50 °F    
Average Humidity 91    
Maximum Humidity 100    
Minimum Humidity 61    
Precipitation  
Precipitation 0.00 in 0.05 in - ()
Sea Level Pressure  
Sea Level Pressure 30.16 in    
Wind  
Wind Speed 1 mph ()    
Max Wind Speed 13 mph    
Max Gust Speed -    
Visibility 5.6 miles    
Events Fog    
T = Trace of Precipitation, MM = Missing Value Source: Averaged Metar Reports

Daily Weather History Graph

Daily Weather History Graph

Search for Another Location

Airport:

Trip Planner

Search our weather history database for the weather conditions in past years. The results will help you decide how hot, cold, wet, or windy it might be!

Date:

Astronomy

Jan. 12, 2014 Rise Set
Actual Time 8:08 AM CET 5:46 PM CET
Civil Twilight 7:39 AM CET 6:15 PM CET
Nautical Twilight 7:05 AM CET 6:49 PM CET
Astronomical Twilight 6:33 AM CET 7:21 PM CET
Moon 3:02 PM CET (1/12) 4:54 AM CET (1/12)
Length of Visible Light 10h 36m
Length of Day
9h 37m
Waxing Gibbous, 88% of the Moon is Illuminated
Jan 12
Waxing Gibbous
Jan 16
Full
Jan 24
Last Quarter
Jan 30
New
Feb 6
First Quarter

Hourly Weather History & Observations

Time (CET) Temp. Dew Point Humidity Pressure Visibility Wind Dir Wind Speed Gust Speed Precip Events Conditions
12:00 AM 53 °F 52 °F 95% 30.14 in - NNE 2.3 mph - -  
12:00 AM 53.6 °F 51.8 °F 94% 30.12 in 6.2 mi NE 2.3 mph - N/A   Partly Cloudy
12:30 AM 51.8 °F 51.8 °F 100% 30.12 in 6.2 mi ENE 2.3 mph - N/A   Partly Cloudy
1:00 AM 52 °F 51 °F 97% 30.13 in 2 mi Calm Calm - -   Overcast
1:00 AM 51.8 °F 50.0 °F 94% 30.12 in 3.7 mi Calm Calm - N/A   Partly Cloudy
1:30 AM 51.8 °F 50.0 °F 94% 30.12 in 3.7 mi Calm Calm - N/A   Partly Cloudy
2:00 AM 52 °F 51 °F 96% 30.13 in - Calm Calm - -  
2:00 AM 51.8 °F 51.8 °F 100% 30.12 in 5.0 mi Calm Calm - N/A   Partly Cloudy
2:30 AM 50.0 °F 50.0 °F 100% 30.12 in 5.0 mi NE 2.3 mph - N/A   Partly Cloudy
3:00 AM 50 °F 50 °F 99% 30.14 in - Calm Calm - -  
3:00 AM 51.8 °F 50.0 °F 94% 30.12 in 4.3 mi Calm Calm - N/A   Partly Cloudy
3:30 AM 50.0 °F 48.2 °F 94% 30.12 in 4.3 mi Calm Calm - N/A   Partly Cloudy
4:00 AM 49 °F 49 °F 100% 30.13 in 2 mi East 2.3 mph - -   Mist
4:00 AM 50.0 °F 48.2 °F 94% 30.12 in 3.1 mi Calm Calm - N/A   Partly Cloudy
4:30 AM 50.0 °F 48.2 °F 94% 30.12 in 3.7 mi Calm Calm - N/A   Partly Cloudy
5:00 AM 49 °F 48 °F 97% 30.13 in - Calm Calm - -  
5:00 AM 48.2 °F 48.2 °F 100% 30.12 in 3.7 mi NNE 1.2 mph - N/A   Partly Cloudy
5:30 AM 48.2 °F 48.2 °F 100% 30.12 in 3.7 mi Calm Calm - N/A   Partly Cloudy
6:00 AM 49 °F 49 °F 98% 30.13 in - Calm Calm - -  
6:00 AM 48.2 °F 48.2 °F 100% 30.12 in 5.0 mi Calm Calm - N/A   Scattered Clouds
6:30 AM 48.2 °F 48.2 °F 100% 30.12 in 5.0 mi North 1.2 mph - N/A   Partly Cloudy
7:00 AM 49 °F 49 °F 98% 30.14 in 5 mi Calm Calm - -   Mist
7:00 AM 50.0 °F 48.2 °F 94% 30.12 in 5.0 mi Calm Calm - N/A   Scattered Clouds
7:30 AM 50.0 °F 50.0 °F 100% 30.12 in 5.0 mi Calm Calm - N/A   Mostly Cloudy
8:00 AM 50 °F 49 °F 97% 30.16 in - North 2.3 mph - -  
8:00 AM 50.0 °F 50.0 °F 100% 30.15 in 5.0 mi Calm Calm - N/A   Scattered Clouds
8:30 AM 48.2 °F 48.2 °F 100% 30.15 in 4.3 mi Calm Calm - N/A   Scattered Clouds
8:41 AM 48.2 °F 48.2 °F 100% 30.15 in 4.3 mi Calm Calm - N/A Fog Shallow Fog
9:00 AM 49 °F 49 °F 99% 30.17 in - NNW 2.3 mph - -  
9:00 AM 48.2 °F 48.2 °F 100% 30.15 in 4.3 mi Calm Calm - N/A Fog Shallow Fog
9:30 AM 50.0 °F 50.0 °F 100% 30.15 in 4.3 mi Variable 2.3 mph - N/A Fog Shallow Fog
10:00 AM 52 °F 51 °F 96% 30.19 in 2 mi Calm Calm - - Fog Light Fog
10:00 AM 51.8 °F 51.8 °F 100% 30.18 in 3.7 mi Calm Calm - N/A Fog Scattered Clouds
10:30 AM 53.6 °F 51.8 °F 94% 30.18 in 4.3 mi Calm Calm - N/A Fog Scattered Clouds
11:00 AM 55 °F 54 °F 94% 30.20 in - Calm Calm - -  
11:00 AM 55.4 °F 53.6 °F 94% 30.18 in 5.0 mi Calm Calm - N/A Fog Scattered Clouds
11:30 AM 57.2 °F 55.4 °F 94% 30.18 in 4.3 mi Calm Calm - N/A   Scattered Clouds
12:00 PM 58 °F 55 °F 88% 30.20 in - Calm Calm - -  
12:00 PM 59.0 °F 57.2 °F 94% 30.18 in 5.6 mi Calm Calm - N/A   Scattered Clouds
12:30 PM 60.8 °F 57.2 °F 88% 30.18 in 5.6 mi Calm Calm - N/A   Scattered Clouds
1:00 PM 60.8 °F 55.4 °F 82% 30.18 in 6.2 mi Calm Calm - N/A   Scattered Clouds
1:30 PM 60.8 °F 55.4 °F 82% 30.15 in 6.2 mi Variable 2.3 mph - N/A   Scattered Clouds
2:00 PM 63 °F 54 °F 66% 30.17 in - SW 4.6 mph - -  
2:00 PM 60.8 °F 55.4 °F 82% 30.15 in 6.2 mi Variable 1.2 mph - N/A   Scattered Clouds
2:30 PM 60.8 °F 55.4 °F 82% 30.15 in 6.2 mi SW 3.5 mph - N/A   Scattered Clouds
3:00 PM 62 °F 53 °F 64% 30.16 in - WNW 6.9 mph - -  
3:00 PM 60.8 °F 53.6 °F 77% 30.15 in 6.2 mi WSW 4.6 mph - N/A   Scattered Clouds
3:30 PM 60.8 °F 53.6 °F 77% 30.15 in 6.2 mi WNW 10.4 mph - N/A   Scattered Clouds
4:00 PM 62 °F 52 °F 61% 30.16 in 16 mi NW 10.4 mph - -   Partly Cloudy
4:00 PM 60.8 °F 53.6 °F 77% 30.15 in 6.2 mi NW 11.5 mph - N/A   Scattered Clouds
4:30 PM 60.8 °F 51.8 °F 72% 30.15 in 6.2 mi NW 12.7 mph - N/A   Partly Cloudy
5:00 PM 60 °F 51 °F 65% 30.18 in - NW 8.1 mph - -  
5:00 PM 59.0 °F 51.8 °F 77% 30.15 in 6.2 mi NW 9.2 mph - N/A   Partly Cloudy
5:30 PM 59.0 °F 51.8 °F 77% 30.18 in 6.2 mi NW 9.2 mph - N/A   Scattered Clouds
6:00 PM 57 °F 51 °F 72% 30.19 in - NW 5.8 mph - -  
6:00 PM 57.2 °F 51.8 °F 82% 30.18 in 6.2 mi NW 5.8 mph - N/A   Partly Cloudy
6:30 PM 55.4 °F 50.0 °F 82% 30.18 in 6.2 mi Calm Calm - N/A   Partly Cloudy
7:00 PM 54 °F 50 °F 81% 30.20 in 16 mi Calm Calm - -   Scattered Clouds
7:00 PM 53.6 °F 50.0 °F 88% 30.18 in 6.2 mi Calm Calm - N/A   Partly Cloudy
7:30 PM 53.6 °F 50.0 °F 88% 30.21 in 6.2 mi Variable 1.2 mph - N/A   Partly Cloudy
8:00 PM 53 °F 50 °F 84% 30.22 in - WSW 1.2 mph - -  
8:00 PM 53.6 °F 50.0 °F 88% 30.21 in 6.2 mi Variable 1.2 mph - N/A   Partly Cloudy
8:30 PM 50.0 °F 46.4 °F 87% 30.21 in 6.2 mi Calm Calm - N/A   Partly Cloudy
9:00 PM 49 °F 48 °F 93% 30.22 in - Calm Calm - -  
9:00 PM 48.2 °F 46.4 °F 93% 30.21 in 6.2 mi Variable 1.2 mph - N/A   Partly Cloudy
9:30 PM 48.2 °F 46.4 °F 93% 30.21 in 6.2 mi Calm Calm - N/A   Partly Cloudy
10:00 PM 47 °F 46 °F 93% 30.22 in 12 mi Calm Calm - -   Scattered Clouds
10:00 PM 46.4 °F 44.6 °F 93% 30.21 in 6.2 mi Variable 1.2 mph - N/A   Partly Cloudy
10:30 PM 46.4 °F 46.4 °F 100% 30.21 in 6.2 mi ENE 2.3 mph - N/A   Partly Cloudy
11:00 PM 47 °F 46 °F 95% 30.22 in - Calm Calm - -  
11:00 PM 44.6 °F 44.6 °F 100% 30.21 in 6.2 mi Variable 1.2 mph - N/A   Partly Cloudy
11:30 PM 44.6 °F 44.6 °F 100% 30.21 in 6.2 mi Calm Calm - N/A   Partly Cloudy